Regional Weather Roundup
Issued by NWS Cleveland, OH

Home | Current Version | Previous Version | Text Only | Print | Product List | Glossary Off
Versions: 1 2 3 4 5 6 7 8 9 10 11 12 13 14 15 16 17 18 19 20 21 22 23 24 25 26 27 28 29 30 31 32 33 34 35 36 37 38 39 40 41 42 43 44 45 46 47 48 49 50

000
ASUS41 KCLE 240310
RWRCLE
OHIO REGIONAL WEATHER ROUNDUP
NATIONAL WEATHER SERVICE CLEVELAND, OH
1100 PM EDT WED MAY 23 2018

NOTE: "FAIR" INDICATES FEW OR NO CLOUDS BELOW 12,000 FEET WITH NO
SIGNIFICANT WEATHER AND/OR OBSTRUCTIONS TO VISIBILITY.

OHZ001>008-015>018-024>027-034-035-043-044-240400-
   NORTHWEST OHIO

CITY           SKY/WX    TMP DP  RH WIND       PRES   REMARKS
DEFIANCE       FAIR      61  55  81 CALM      30.19R
FINDLAY        FAIR      65  51  60 CALM      30.19R
TOLEDO EXPRESS FAIR      61  56  83 CALM      30.19R
TOLEDO EXEC    FAIR      66  51  58 CALM      30.20R
LIMA           FAIR      63  53  70 E3        30.20R
$$

OHZ009>014-019>023-028>033-038-089-240400-
   NORTHEAST OHIO

CITY           SKY/WX    TMP DP  RH WIND       PRES   REMARKS
CLE-HOPKINS    FAIR      61  53  75 CALM      30.20R
CLE-LAKEFRONT  FAIR      65  52  62 CALM      30.17S
CUY CO. ARPT   PTCLDY    59  55  88 CALM      30.20R
LORAIN-ELYRIA  FAIR      59  52  77 NE7       30.19R
ASHTABULA      FAIR      55  55 100 CALM      30.19R
AKRON-CANTON   FAIR      63  47  55 N5        30.19S
WOOSTER        FAIR      57  52  83 CALM      30.20R
MANSFIELD      FAIR      60  50  69 CALM      30.21R
YOUNGSTOWN     FAIR      58  52  80 NW3       30.19R
$$

OHZ042-051>053-060>062-070>072-077>081-240400-
  SOUTHWEST OHIO

CITY           SKY/WX    TMP DP  RH WIND       PRES   REMARKS
CINC-COVINGTON MOCLDY    71  54  54 NE7       30.16R
CINC-LUNKEN    FAIR      63  61  93 NE3       30.17R
HAMILTON       FAIR      67  57  70 NE6       30.18R
DAYTON         FAIR      65  54  67 NE5       30.20R
WRIGHT-PAT AFB FAIR      64  55  72 N5        30.19R
DAYTON GENERAL FAIR      67  55  65 CALM      30.18R
WILMINGTON     FAIR      63  60  90 CALM      30.18R
$$

OHZ036-037-039>041-045>050-054>059-063>069-073>076-082>088-240400-
  CENTRAL AND SOUTHEAST OHIO

CITY           SKY/WX    TMP DP  RH WIND       PRES   REMARKS
COLUMBUS       FAIR      66  53  63 CALM      30.18R
OSU AIRPORT    FAIR      63  53  70 N6        30.19R
BOLTON FIELD   FAIR      65  53  65 CALM      30.19R
RICKENBACK AFB FAIR      64  53  68 MISG      30.18R
NEWARK         FAIR      61  57  87 CALM      30.18R
MARION         FAIR      59  54  83 N3        30.20R
LANCASTER      FAIR      62  58  86 CALM      30.18R
ZANESVILLE     FAIR      59  55  87 CALM      30.18R
NEW PHILLY     NOT AVBL
$$




USA.gov is the U.S. government's official web portal to all federal, state and local government web resources and services.